Norah Head Observation History
Time Wind Speed Temp Pressure Rel. Hum Rain
25/03:00pm NE 15-19 kts 28.9°c 1006.3 hPa 66% 0.2mm
25/02:30pm NE 14-17 kts 29.3°c 1006.8 hPa 64% 0.2mm
25/02:00pm NE 15-17 kts 29.6°c 1007.0 hPa 66% 0.2mm
25/01:30pm NE 13-15 kts 29.5°c 1007.4 hPa 66% 0.2mm
25/01:00pm NE 12-14 kts 29.8°c 1007.8 hPa 66% 0.2mm
25/12:30pm NE 11-13 kts 29.9°c 1008.3 hPa 67% 0.2mm
25/12:00pm NE 10-12 kts 29.8°c 1008.5 hPa 69% 0.2mm
25/11:30am NE 11-12 kts 28.9°c 1008.8 hPa 69% 0.2mm
25/11:00am NE 11-12 kts 28.2°c 1008.9 hPa 71% 0.2mm
25/10:30am NE 11-12 kts 27.6°c 1009.1 hPa 74% 0.2mm
25/10:00am NE 10-12 kts 26.8°c 1009.5 hPa 73% 0.0mm
25/09:30am NE 10-11 kts 26.4°c 1009.6 hPa 75% 0.0mm
25/09:00am NNE 7-8 kts 25.6°c 1009.9 hPa 80% 0.0mm
25/08:30am NNE 8-10 kts 23.6°c 1009.8 hPa 83% 0.0mm
25/08:00am N 7-8 kts 22.6°c 1009.7 hPa 88% 0.0mm
25/07:30am N 10-12 kts 21.6°c 1009.6 hPa 91% 0.0mm
25/07:00am N 9-11 kts 21.4°c 1009.5 hPa 95% 0.0mm
25/06:30am N 8-10 kts 21.2°c 1009.1 hPa 96% 0.0mm
25/06:00am NNE 8-10 kts 21.4°c 1009.0 hPa 96% 0.0mm
25/05:30am NNE 11-13 kts 21.3°c 1008.6 hPa 96% 0.0mm
25/05:00am NNE 9-11 kts 21.4°c 1008.7 hPa 96% 0.0mm
25/04:30am NNE 9-10 kts 21.3°c 1008.5 hPa 96% 0.0mm
25/04:00am NNE 10-11 kts 21.4°c 1008.6 hPa 96% 0.0mm
25/03:30am NNE 6-9 kts 21.6°c 1008.9 hPa 96% 0.0mm
25/03:00am NNE 12-13 kts 21.7°c 1008.8 hPa 95% 0.0mm
25/02:30am NNE 10-12 kts 21.9°c 1009.2 hPa 95% 0.0mm
25/02:00am NNE 9-10 kts 21.9°c 1009.4 hPa 94% 0.0mm
25/01:30am NNE 12-13 kts 22.1°c 1009.6 hPa 93% 0.0mm
25/01:00am NNE 12-13 kts 22.4°c 1010.0 hPa 91% 0.0mm
25/12:30am NNE 14-16 kts 22.5°c 1010.2 hPa 89% 0.0mm
25/12:00am NNE 14-16 kts 22.7°c 1010.2 hPa 90% 0.0mm
Time Wind Speed Temp Pressure Rel. Hum Rain
24/11:30pm NNE 15-17 kts 22.8°c 1010.5 hPa 89% 0.0mm
24/11:00pm NNE 14-17 kts 22.8°c 1010.6 hPa 88% 0.0mm
24/10:30pm N 12-15 kts 23.0°c 1010.9 hPa 88% 0.0mm
24/10:00pm NNE 13-17 kts 23.2°c 1010.7 hPa 87% 0.0mm
24/09:30pm NNE 17-21 kts 23.3°c 1010.2 hPa 87% 0.0mm
24/09:00pm NNE 16-19 kts 23.3°c 1010.0 hPa 86% 0.0mm
24/08:30pm N 14-17 kts 23.4°c 1009.9 hPa 85% 0.0mm
24/08:00pm NNE 16-19 kts 23.7°c 1009.7 hPa 83% 0.0mm
24/07:30pm NNE 16-19 kts 23.8°c 1009.4 hPa 80% 0.0mm
24/07:00pm NE 22-25 kts 24.2°c 1008.9 hPa 78% 0.0mm
24/06:30pm NE 21-25 kts 24.6°c 1008.8 hPa 77% 0.0mm
24/06:00pm NE 21-25 kts 24.9°c 1008.8 hPa 75% 0.0mm
24/05:30pm NE 19-23 kts 25.5°c 1008.9 hPa 72% 0.0mm
24/05:00pm NE 19-23 kts 26.2°c 1009.1 hPa 69% 0.0mm
24/04:30pm NE 19-22 kts 27.1°c 1009.3 hPa 66% 0.0mm
24/04:00pm NE 19-22 kts 27.7°c 1009.5 hPa 66% 0.0mm
24/03:30pm NE 17-20 kts 28.2°c 1009.9 hPa 65% 0.0mm
24/03:00pm NE 16-18 kts 29.1°c 1010.4 hPa 64% 0.0mm
24/02:30pm NE 16-19 kts 29.3°c 1010.7 hPa 66% 0.0mm
24/02:00pm NE 16-19 kts 29.5°c 1011.0 hPa 67% 0.0mm
24/01:30pm NE 14-17 kts 29.0°c 1011.2 hPa 69% 0.0mm
24/01:00pm NE 13-15 kts 29.7°c 1011.7 hPa 69% 0.0mm
24/12:30pm NE 13-14 kts 29.0°c 1011.9 hPa 66% 0.0mm
24/12:00pm NE 13-14 kts 29.6°c 1012.1 hPa 65% 0.0mm
24/11:30am NE 12-14 kts 29.3°c 1012.4 hPa 64% 0.0mm
24/11:00am NE 12-14 kts 28.7°c 1012.6 hPa 68% 0.0mm
24/10:30am NE 12-14 kts 28.2°c 1012.6 hPa 68% 0.0mm
24/10:00am NE 11-12 kts 28.0°c 1012.8 hPa 69% 0.0mm
24/09:30am NNE 7-8 kts 27.6°c 1013.0 hPa 71% 0.0mm
24/09:00am N 2-3 kts 25.3°c 1013.2 hPa 71% 0.0mm
24/08:30am N 3-4 kts 25.0°c 1012.9 hPa 74% 0.0mm
24/08:00am NNE 2-3 kts 24.4°c 1013.0 hPa 77% 0.0mm
24/07:30am NW 1 kts 23.1°c 1012.9 hPa 84% 0.0mm
24/07:00am N 7-8 kts 22.8°c 1012.3 hPa 89% 0.0mm
24/06:30am N 8-9 kts 22.2°c 1012.0 hPa 92% 0.0mm
24/06:00am NNE 9-11 kts 22.4°c 1012.0 hPa 93% 0.0mm
24/05:30am NNE 8-10 kts 22.3°c 1011.7 hPa 94% 0.0mm
24/05:00am NNE 6-8 kts 22.2°c 1011.5 hPa 94% 0.0mm
24/04:30am N 5-7 kts 22.0°c 1011.4 hPa 93% 0.0mm
24/04:00am N 2-5 kts 22.1°c 1011.3 hPa 93% 0.0mm
24/03:30am N 6-7 kts 22.6°c 1011.3 hPa 94% 0.0mm
24/03:00am NNE 7-8 kts 22.8°c 1011.5 hPa 93% 0.0mm
24/02:30am N 6-7 kts 23.0°c 1011.8 hPa 92% 0.0mm
24/02:00am NNE 7-8 kts 23.1°c 1011.8 hPa 91% 0.0mm
24/01:30am NNE 8-10 kts 23.2°c 1011.9 hPa 89% 0.0mm
24/01:00am NNE 10-11 kts 23.4°c 1011.9 hPa 87% 0.0mm
24/12:30am NNE 10-11 kts 23.4°c 1012.0 hPa 86% 0.0mm
24/12:00am NNE 11-13 kts 23.6°c 1012.0 hPa 86% 0.0mm
Time Wind Speed Temp Pressure Rel. Hum Rain
23/11:30pm NNE 12-13 kts 23.8°c 1011.9 hPa 87% 0.0mm
23/11:00pm NNE 12-14 kts 23.9°c 1011.9 hPa 86% 0.0mm
23/10:30pm NNE 12-13 kts 24.0°c 1011.8 hPa 86% 0.0mm
23/10:00pm N 10-12 kts 24.1°c 1011.8 hPa 84% 0.0mm
23/09:30pm NNE 15-17 kts 24.8°c 1011.3 hPa 77% 0.0mm
23/09:00pm N 11-13 kts 24.6°c 1011.2 hPa 78% 0.0mm
23/08:30pm N 13-15 kts 24.6°c 1011.1 hPa 83% 0.0mm
23/08:00pm N 14-15 kts 24.6°c 1010.9 hPa 83% 0.0mm
23/07:30pm N 8-10 kts 24.5°c 1011.1 hPa 84% 0.0mm
23/07:00pm NNE 11-14 kts 25.0°c 1010.9 hPa 80% 0.0mm
23/06:30pm N 7-8 kts 25.1°c 1011.0 hPa 80% 0.0mm
23/06:00pm NNE 8-9 kts 25.6°c 1010.8 hPa 81% 0.0mm
23/05:30pm NNE 8-10 kts 25.9°c 1010.7 hPa 78% 0.0mm
23/05:00pm NE 8-9 kts 26.5°c 1011.1 hPa 75% 0.0mm
23/04:30pm NE 8-10 kts 28.4°c 1011.2 hPa 72% 0.0mm
23/04:00pm NE 7-8 kts 29.4°c 1011.4 hPa 74% 0.0mm
23/03:30pm ENE 6-7 kts 27.9°c 1011.6 hPa 74% 0.0mm
23/03:00pm ENE 5-6 kts 27.5°c 1011.8 hPa 75% 0.0mm
23/02:30pm E 5-6 kts 27.1°c 1011.9 hPa 74% 0.0mm
23/02:00pm SE 6-7 kts 27.5°c 1011.9 hPa 72% 0.0mm
23/01:30pm SSE 5-6 kts 27.3°c 1012.2 hPa 71% 0.0mm
23/01:00pm SSE 5-6 kts 27.3°c 1012.6 hPa 71% 0.0mm
23/12:30pm S 6-8 kts 27.4°c 1012.8 hPa 75% 0.0mm
23/12:00pm S 6-7 kts 27.2°c 1013.1 hPa 75% 0.0mm
23/11:30am S 6 kts 26.8°c 1013.2 hPa 76% 0.0mm
23/11:00am SSW 5-6 kts 26.2°c 1013.2 hPa 78% 0.0mm
23/10:30am SSW 6-7 kts 26.0°c 1013.2 hPa 79% 0.0mm
23/10:00am SSW 7-9 kts 25.8°c 1013.1 hPa 81% 0.0mm
23/09:30am SSW 6-9 kts 25.0°c 1013.2 hPa 82% 0.0mm
23/09:00am SSW 8-9 kts 24.6°c 1013.0 hPa 84% n/a
23/08:30am SSW 9-10 kts 24.3°c 1012.8 hPa 87% n/a
23/08:00am SSW 10-12 kts 23.5°c 1012.5 hPa 89% n/a
23/07:30am SSW 11-15 kts 22.9°c 1012.0 hPa 91% n/a
23/07:00am SSW 10-13 kts 22.5°c 1011.3 hPa 91% n/a
23/06:30am SW 7-11 kts 22.3°c 1010.7 hPa 89% n/a
23/06:00am N 3 kts 22.5°c 1010.0 hPa 90% n/a
23/05:30am N 4-5 kts 22.4°c 1009.4 hPa 88% n/a
23/05:00am N 6-7 kts 22.7°c 1009.1 hPa 88% n/a
23/04:30am NNE 6-8 kts 22.4°c 1008.8 hPa 86% n/a
23/04:00am N 6-8 kts 22.8°c 1008.5 hPa 83% n/a
23/03:30am N 6-7 kts 22.6°c 1008.5 hPa 85% n/a
23/03:00am N 6-7 kts 22.6°c 1008.5 hPa 88% 0.0mm
23/02:30am N 10-12 kts 22.9°c 1008.5 hPa 90% n/a
23/02:00am NNE 10-11 kts 23.1°c 1008.7 hPa 88% n/a
23/01:30am NNE 10-11 kts 23.3°c 1008.8 hPa 86% n/a
23/01:00am NNE 9-10 kts 23.6°c 1009.1 hPa 79% n/a
23/12:30am N 11-14 kts 23.8°c 1009.2 hPa 81% n/a
23/12:00am NNE 11-12 kts 23.6°c 1009.3 hPa 85% n/a